When you browse on this site, cookies collect data to enhance your experience and personalize the content and advertising you see.
Visit our Privacy Policy to learn more. By continuing to use the site, you agree to this use of cookies and data.
  • In Belgium
  • List of Countries
  • For 7 days
  • Water Temperature
  • Satellite Maps
  • Weather Map
  • Weather Widgets
  • user-avatar
    Login

    Hourly Weather Pelageinskoe

    Today, 22 February, Friday

    Time Temperature Precipitation Wind Pressure Humidity
    00:00 -14°C° 0.1 mm 7 mps 744 mmHg 82%
    01:00 -14°C° 0.1 mm 7 mps 745 mmHg 82%
    02:00 -14°C° 0.1 mm 7 mps 745 mmHg 82%
    03:00 -14°C° 0.1 mm 7 mps 746 mmHg 82%
    04:00 -15°C° 0.1 mm 7 mps 746 mmHg 81%
    05:00 -15°C° 0.1 mm 7 mps 747 mmHg 81%
    06:00 -15°C° 0.1 mm 7 mps 747 mmHg 80%
    07:00 -15°C° 0.1 mm 7 mps 748 mmHg 80%
    08:00 -16°C° 0.1 mm 8 mps 749 mmHg 80%
    09:00 -16°C° 0.1 mm 8 mps 750 mmHg 80%
    10:00 -16°C° 0.1 mm 8 mps 750 mmHg 78%
    11:00 -16°C° 0.1 mm 8 mps 751 mmHg 77%
    12:00 -16°C° 0.1 mm 8 mps 752 mmHg 75%
    13:00 -15°C° 0 mm 8 mps 753 mmHg 73%
    14:00 -15°C° 0 mm 8 mps 753 mmHg 71%
    15:00 -13°C° 0 mm 8 mps 754 mmHg 69%
    16:00 -13°C° 0 mm 7 mps 755 mmHg 71%
    17:00 -14°C° 0 mm 7 mps 756 mmHg 73%
    18:00 -14°C° 0 mm 6 mps 757 mmHg 74%
    19:00 -14°C° 0 mm 6 mps 757 mmHg 76%
    20:00 -15°C° 0 mm 6 mps 758 mmHg 78%
    21:00 -14°C° 0 mm 5 mps 759 mmHg 80%
    22:00 -14°C° 0 mm 5 mps 760 mmHg 82%
    23:00 -15°C° 0 mm 5 mps 760 mmHg 83%

    Tomorrow, 23 February, Saturday

    Time Temperature Precipitation Wind Pressure Humidity
    00:00 -15°C° 0 mm 4 mps 761 mmHg 85%
    01:00 -15°C° 0 mm 4 mps 761 mmHg 87%
    02:00 -15°C° 0 mm 4 mps 762 mmHg 89%
    03:00 -16°C° 0 mm 4 mps 762 mmHg 90%
    04:00 -16°C° 0 mm 4 mps 763 mmHg 91%
    05:00 -16°C° 0 mm 3 mps 763 mmHg 93%
    06:00 -16°C° 0 mm 3 mps 763 mmHg 94%
    07:00 -16°C° 0 mm 3 mps 763 mmHg 92%
    08:00 -15°C° 0 mm 2 mps 763 mmHg 90%
    09:00 -15°C° 0 mm 2 mps 764 mmHg 88%
    10:00 -14°C° 0 mm 2 mps 763 mmHg 84%
    11:00 -12°C° 0 mm 2 mps 763 mmHg 81%
    12:00 -10°C° 0 mm 2 mps 763 mmHg 78%
    13:00 -9°C° 0 mm 2 mps 762 mmHg 77%
    14:00 -9°C° 0 mm 3 mps 762 mmHg 76%
    15:00 -8°C° 0 mm 3 mps 761 mmHg 76%
    16:00 -9°C° 0.1 mm 4 mps 760 mmHg 79%
    17:00 -9°C° 0.1 mm 4 mps 760 mmHg 82%
    18:00 -9°C° 0.1 mm 4 mps 759 mmHg 85%
    19:00 -9°C° 0.5 mm 4 mps 758 mmHg 87%
    20:00 -10°C° 0.5 mm 5 mps 757 mmHg 88%
    21:00 -8°C° 0.5 mm 5 mps 757 mmHg 90%
    22:00 -8°C° 0.4 mm 5 mps 756 mmHg 91%
    23:00 -8°C° 0.4 mm 5 mps 755 mmHg 91%

    Day after tomorrow, 24 February, Sunday

    Time Temperature Precipitation Wind Pressure Humidity
    00:00 -7°C° 0.4 mm 4 mps 755 mmHg 92%
    01:00 -7°C° 0.6 mm 4 mps 754 mmHg 93%
    02:00 -5°C° 0.6 mm 4 mps 754 mmHg 93%
    03:00 -4°C° 0.6 mm 4 mps 754 mmHg 94%
    04:00 -3°C° 0.4 mm 4 mps 754 mmHg 94%
    05:00 -2°C° 0.4 mm 4 mps 753 mmHg 93%
    06:00 -1°C° 0.4 mm 4 mps 753 mmHg 93%
    07:00 -1°C° 0.3 mm 4 mps 754 mmHg 94%
    08:00 -1°C° 0.3 mm 4 mps 754 mmHg 95%
    09:00 -1°C° 0.3 mm 4 mps 754 mmHg 96%
    10:00 0°C° 0.1 mm 3 mps 754 mmHg 97%
    11:00 +1°C° 0.1 mm 3 mps 755 mmHg 98%
    12:00 +1°C° 0.1 mm 3 mps 755 mmHg 99%
    13:00 +1°C° 0 mm 3 mps 755 mmHg 99%
    14:00 0°C° 0 mm 3 mps 755 mmHg 99%
    15:00 0°C° 0 mm 3 mps 755 mmHg 99%
    16:00 0°C° 0 mm 3 mps 755 mmHg 98%
    17:00 0°C° 0 mm 3 mps 755 mmHg 98%
    18:00 0°C° 0 mm 3 mps 755 mmHg 97%
    19:00 0°C° 0 mm 3 mps 755 mmHg 96%
    20:00 0°C° 0 mm 3 mps 755 mmHg 96%
    21:00 0°C° 0 mm 3 mps 755 mmHg 95%
    22:00 0°C° 0 mm 3 mps 754 mmHg 95%
    23:00 0°C° 0 mm 3 mps 753 mmHg 96%

    25 February, Monday

    Time Temperature Precipitation Wind Pressure Humidity
    00:00 -1°C° 0 mm 4 mps 753 mmHg 96%
    01:00 -1°C° 0.4 mm 4 mps 752 mmHg 95%
    02:00 -1°C° 0.4 mm 4 mps 751 mmHg 95%
    03:00 0°C° 0.4 mm 5 mps 751 mmHg 95%
    04:00 0°C° 0.1 mm 5 mps 750 mmHg 94%
    05:00 0°C° 0.1 mm 5 mps 750 mmHg 94%
    06:00 0°C° 0.1 mm 5 mps 749 mmHg 93%
    07:00 0°C° 0.1 mm 5 mps 749 mmHg 92%
    08:00 -1°C° 0.1 mm 6 mps 749 mmHg 91%
    09:00 -1°C° 0.1 mm 6 mps 748 mmHg 90%
    10:00 -1°C° 0.1 mm 6 mps 748 mmHg 90%
    11:00 0°C° 0.1 mm 5 mps 748 mmHg 90%
    12:00 0°C° 0.1 mm 5 mps 748 mmHg 90%
    13:00 0°C° 0 mm 5 mps 748 mmHg 87%
    14:00 -1°C° 0 mm 6 mps 748 mmHg 85%
    15:00 -1°C° 0 mm 6 mps 748 mmHg 82%
    16:00 -2°C° 0 mm 6 mps 748 mmHg 82%
    17:00 -2°C° 0 mm 6 mps 748 mmHg 83%
    18:00 -3°C° 0 mm 6 mps 747 mmHg 83%
    19:00 -3°C° 0.1 mm 6 mps 747 mmHg 83%
    20:00 -2°C° 0.1 mm 5 mps 747 mmHg 84%
    21:00 -2°C° 0.1 mm 5 mps 746 mmHg 84%
    22:00 -2°C° 0.1 mm 5 mps 746 mmHg 86%
    23:00 -2°C° 0.1 mm 4 mps 746 mmHg 88%

    26 February, Tuesday

    Time Temperature Precipitation Wind Pressure Humidity
    00:00 -2°C° 0.1 mm 4 mps 745 mmHg 90%
    01:00 -2°C° 0.1 mm 4 mps 745 mmHg 89%
    02:00 -2°C° 0.1 mm 4 mps 745 mmHg 89%
    03:00 -2°C° 0.1 mm 4 mps 745 mmHg 89%
    04:00 -3°C° 0 mm 4 mps 745 mmHg 89%
    05:00 -3°C° 0 mm 4 mps 745 mmHg 90%
    06:00 -4°C° 0 mm 4 mps 745 mmHg 90%
    07:00 -4°C° 0 mm 4 mps 745 mmHg 89%
    08:00 -4°C° 0 mm 4 mps 745 mmHg 87%
    09:00 -3°C° 0 mm 4 mps 745 mmHg 86%
    10:00 -3°C° 0.1 mm 4 mps 745 mmHg 85%
    11:00 -4°C° 0.1 mm 5 mps 745 mmHg 84%
    12:00 -2°C° 0.1 mm 5 mps 744 mmHg 83%
    13:00 -2°C° 0.1 mm 4 mps 744 mmHg 84%
    14:00 -2°C° 0.1 mm 4 mps 743 mmHg 84%
    15:00 -2°C° 0.1 mm 4 mps 743 mmHg 84%
    16:00 -3°C° 0.1 mm 4 mps 743 mmHg 85%
    17:00 -2°C° 0.1 mm 3 mps 743 mmHg 86%
    18:00 -2°C° 0.1 mm 3 mps 743 mmHg 87%
    19:00 -4°C° 0.1 mm 3 mps 743 mmHg 86%
    20:00 -4°C° 0.1 mm 4 mps 743 mmHg 85%
    21:00 -5°C° 0.1 mm 4 mps 743 mmHg 83%
    22:00 -7°C° 0 mm 4 mps 744 mmHg 84%
    23:00 -8°C° 0 mm 4 mps 744 mmHg 85%

    27 February, Wednesday

    Time Temperature Precipitation Wind Pressure Humidity
    00:00 -9°C° 0 mm 4 mps 744 mmHg 86%
    01:00 -10°C° 0 mm 4 mps 745 mmHg 86%
    02:00 -11°C° 0 mm 4 mps 745 mmHg 86%
    03:00 -12°C° 0 mm 4 mps 746 mmHg 86%
    04:00 -12°C° 0 mm 4 mps 746 mmHg 86%
    05:00 -14°C° 0 mm 4 mps 747 mmHg 85%
    06:00 -14°C° 0 mm 4 mps 747 mmHg 85%
    07:00 -14°C° 0 mm 4 mps 748 mmHg 83%
    08:00 -15°C° 0 mm 4 mps 748 mmHg 82%
    09:00 -15°C° 0 mm 4 mps 749 mmHg 80%
    10:00 -12°C° 0 mm 4 mps 749 mmHg 77%
    11:00 -10°C° 0 mm 3 mps 749 mmHg 75%
    12:00 -9°C° 0 mm 3 mps 749 mmHg 72%
    13:00 -8°C° 0 mm 3 mps 748 mmHg 72%
    14:00 -8°C° 0 mm 3 mps 748 mmHg 73%
    15:00 -6°C° 0 mm 2 mps 748 mmHg 73%
    16:00 -6°C° 0 mm 2 mps 747 mmHg 78%
    17:00 -6°C° 0 mm 2 mps 747 mmHg 84%
    18:00 -4°C° 0 mm 1 mps 746 mmHg 89%
    19:00 -6°C° 0 mm 2 mps 745 mmHg 90%
    20:00 -6°C° 0 mm 3 mps 744 mmHg 91%
    21:00 -5°C° 0 mm 3 mps 744 mmHg 91%
    22:00 -4°C° 0.1 mm 4 mps 742 mmHg 92%
    23:00 -4°C° 0.1 mm 4 mps 741 mmHg 92%
    Show more